TimePDT,TemperatureF,Dew PointF,Humidity,Sea Level PressureIn,VisibilityMPH,Wind Direction,Wind SpeedMPH,Gust SpeedMPH,PrecipitationIn,Events,Conditions,WindDirDegrees,DateUTC
12:54 AM,60.1,46.9,62,29.88,10.0,Calm,Calm,-,N/A,,Clear,0,2012-10-03 07:54:00
1:54 AM,57.9,48.0,70,29.90,10.0,Calm,Calm,-,N/A,,Clear,0,2012-10-03 08:54:00
2:54 AM,59.0,48.0,67,29.89,10.0,Calm,Calm,-,N/A,,Clear,0,2012-10-03 09:54:00
3:54 AM,55.9,45.0,67,29.88,10.0,East,3.5,-,N/A,,Clear,90,2012-10-03 10:54:00
4:54 AM,55.9,44.1,64,29.89,10.0,Calm,Calm,-,N/A,,Clear,0,2012-10-03 11:54:00
5:54 AM,55.0,44.1,67,29.90,10.0,ESE,3.5,-,N/A,,Clear,110,2012-10-03 12:54:00
6:54 AM,55.9,46.0,69,29.91,10.0,Calm,Calm,-,N/A,,Clear,0,2012-10-03 13:54:00
7:54 AM,57.0,45.0,64,29.93,10.0,Calm,Calm,-,N/A,,Clear,0,2012-10-03 14:54:00
8:54 AM,64.0,51.1,63,29.94,9.0,Calm,Calm,-,N/A,,Clear,0,2012-10-03 15:54:00
9:54 AM,66.9,55.0,66,29.96,8.0,Calm,Calm,-,N/A,,Clear,0,2012-10-03 16:54:00
10:54 AM,68.0,55.9,65,29.97,9.0,Calm,Calm,-,N/A,,Clear,0,2012-10-03 17:54:00
11:54 AM,73.0,51.1,46,29.97,10.0,Calm,Calm,-,N/A,,Clear,0,2012-10-03 18:54:00
12:54 PM,69.1,55.9,63,29.96,10.0,Variable,5.8,-,N/A,,Clear,0,2012-10-03 19:54:00
1:54 PM,75.0,55.9,51,29.95,10.0,WSW,6.9,-,N/A,,Clear,240,2012-10-03 20:54:00
2:54 PM,73.9,55.9,53,29.95,10.0,WSW,9.2,-,N/A,,Clear,240,2012-10-03 21:54:00
3:54 PM,73.0,57.0,57,29.95,10.0,West,8.1,-,N/A,,Clear,270,2012-10-03 22:54:00
4:54 PM,70.0,57.0,63,29.96,10.0,WSW,10.4,-,N/A,,Clear,240,2012-10-03 23:54:00
5:54 PM,66.9,55.9,68,29.97,10.0,SSW,6.9,-,N/A,,Clear,200,2012-10-04 00:54:00
6:54 PM,64.0,55.9,75,29.99,9.0,ENE,3.5,-,N/A,,Clear,70,2012-10-04 01:54:00
7:54 PM,61.0,55.9,83,30.01,9.0,ESE,6.9,-,N/A,,Clear,110,2012-10-04 02:54:00
8:42 PM,60.8,55.4,82,29.99,8.0,Calm,Calm,-,N/A,,Mostly Cloudy,0,2012-10-04 03:42:00
8:54 PM,60.1,55.9,86,30.03,8.0,ENE,3.5,-,N/A,,Overcast,70,2012-10-04 03:54:00
9:15 PM,60.8,55.4,82,30.00,8.0,Calm,Calm,-,N/A,,Overcast,0,2012-10-04 04:15:00
9:54 PM,60.1,55.9,86,30.05,8.0,East,6.9,-,N/A,,Overcast,90,2012-10-04 04:54:00
10:54 PM,60.1,55.9,86,30.06,8.0,East,4.6,-,N/A,,Overcast,80,2012-10-04 05:54:00
11:54 PM,60.1,55.9,86,30.06,8.0,NE,5.8,-,N/A,,Overcast,50,2012-10-04 06:54:00